GFSSGP_850_spd_231.txt.gz
Wind_Speed
10 9 4 1 1 1 1 2 3 4 3 3 12 7 10 15 2 4 22 16 19 18 17 15 14 15 14 15 15 15 15 15 15 14 14 15 15 16 15 15 15 14 15 15 14 14 14 14 14
11 7 2 2 1 2 3 3 8 6 15 24 17 12 10 4 8 23 23 20 17 17 18 16 15 15 16 15 15 15 16 15 16 16 16 16 16 15 15 15 15 15 15 16 15 14 14 14 14
9 2 2 1 1 2 3 1 11 18 13 6 7 13 5 5 19 27 22 24 19 18 17 16 16 17 17 16 16 15 16 17 16 16 15 15 15 15 16 15 15 14 14 15 17 15 15 15 15
4 1 2 2 1 0 6 6 14 12 11 10 19 9 10 6 20 20 23 22 20 19 17 16 16 16 16 15 15 15 16 15 16 15 15 15 14 13 14 13 12 12 13 15 17 18 17 17 18
2 1 2 1 3 5 10 18 6 4 7 10 8 7 7 17 21 22 24 20 19 18 16 17 15 16 16 16 15 16 16 16 16 16 14 14 12 11 10 10 10 10 11 13 15 18 19 20 16
1 1 3 3 4 8 8 11 14 13 16 16 16 14 6 22 21 23 22 19 17 17 17 17 16 17 16 16 17 16 16 16 15 13 13 12 11 10 8 8 7 8 9 13 16 18 18 17 14
2 2 2 4 5 3 4 5 10 12 13 9 18 6 16 25 20 21 20 18 18 16 17 17 17 18 17 16 17 16 15 15 14 13 12 12 11 11 9 9 7 8 10 14 18 19 19 16 11
4 2 3 2 3 3 6 3 14 14 7 19 25 7 14 29 23 21 18 16 19 16 16 17 17 18 18 17 17 16 15 14 14 13 12 12 13 13 11 10 9 9 11 14 21 20 20 17 12
5 1 1 4 1 3 12 4 5 7 23 5 5 25 33 29 27 22 20 20 19 17 16 17 18 20 19 16 16 15 15 14 13 13 12 14 14 14 12 13 12 12 13 18 24 22 20 20 14
4 2 5 7 2 2 5 10 4 4 17 15 25 28 33 30 29 24 24 22 20 19 18 19 20 18 17 15 14 15 16 14 13 12 14 13 15 15 16 16 15 17 19 22 26 24 25 19 16
6 5 4 7 7 2 8 16 8 15 1 24 31 36 35 34 29 24 23 19 19 21 22 22 21 18 16 15 16 17 15 11 11 12 13 15 14 14 15 15 17 18 21 23 24 23 19 18 15
4 6 9 11 8 5 3 5 8 8 6 20 31 36 40 37 32 25 23 21 23 23 23 21 19 18 16 13 15 15 12 14 12 9 8 10 12 12 13 14 16 17 22 23 22 21 19 17 12
3 7 8 17 15 14 10 9 7 13 2 17 30 36 38 35 29 23 22 21 23 23 23 20 17 15 14 15 18 16 12 10 10 14 11 11 11 8 13 16 15 16 17 19 19 17 15 13 10
9 17 15 15 14 12 15 8 15 0 6 20 29 34 37 33 25 24 23 23 21 22 20 18 16 15 16 16 18 16 14 13 11 14 12 12 12 12 13 14 13 14 15 14 13 11 10 10 8
22 10 6 4 14 5 14 5 10 17 13 21 28 30 34 29 27 23 23 23 23 20 19 18 17 17 13 16 18 16 15 14 12 12 11 11 15 13 16 17 17 15 13 13 13 12 10 10 8
4 5 3 5 5 6 6 4 10 21 18 24 26 31 32 31 29 24 27 24 22 21 19 18 18 19 15 14 12 13 15 13 14 12 12 15 16 14 15 16 16 16 14 12 10 11 10 9 6
5 4 3 3 7 4 2 2 8 19 17 20 24 28 32 33 31 28 27 27 23 22 21 17 20 20 17 15 11 11 15 15 13 13 9 11 10 13 13 15 17 15 12 10 11 12 10 8 8
4 3 4 5 4 3 4 3 4 15 18 23 22 24 29 32 35 33 31 30 26 23 23 19 18 21 22 18 14 15 15 16 16 12 9 7 10 13 12 12 13 12 11 9 8 9 10 9 8
3 1 6 2 5 3 4 6 10 16 11 12 21 25 28 32 34 33 35 32 30 27 25 21 19 27 26 22 16 12 14 17 17 15 12 9 9 8 8 7 8 10 9 8 8 9 9 6 8
3 3 4 1 5 3 6 7 5 12 16 19 20 24 29 33 34 36 40 37 33 30 25 20 25 31 30 24 20 14 17 17 13 13 14 14 9 7 6 5 6 11 13 14 14 11 10 8 9
3 4 3 2 3 2 4 4 6 8 15 26 26 27 32 34 35 40 43 42 37 34 29 23 25 35 31 25 22 16 16 19 16 13 14 14 10 9 10 6 5 7 15 16 16 16 13 11 11
5 7 8 6 5 4 2 3 5 7 14 14 27 25 32 32 36 43 46 45 41 37 31 25 26 34 31 26 27 22 18 23 17 10 8 12 12 10 9 6 7 6 12 17 18 17 16 15 14
10 7 6 6 5 3 1 3 6 3 8 10 19 31 32 33 38 46 48 46 43 39 35 28 28 29 34 27 27 23 21 21 16 12 9 13 14 10 9 7 7 8 10 16 18 17 14 14 16
3 2 2 4 3 2 6 5 6 6 13 16 20 31 34 37 36 44 48 45 45 42 38 32 30 31 31 32 30 25 22 22 21 16 12 16 16 13 10 8 9 8 9 14 16 16 14 12 12
5 5 2 2 0 6 6 3 13 8 6 13 18 25 32 38 37 42 48 50 48 46 43 37 33 31 32 39 35 28 26 23 23 18 11 12 17 17 13 11 10 10 9 11 12 15 15 13 12
6 9 6 6 4 4 6 6 8 8 22 22 31 32 26 40 41 43 47 52 51 48 46 42 37 33 36 46 39 31 26 24 26 21 16 15 13 15 12 12 9 12 10 10 11 12 14 15 14
4 5 9 5 1 2 5 7 9 5 9 16 24 28 31 36 42 43 46 50 53 50 49 45 40 35 40 48 43 36 30 25 27 23 20 16 15 15 14 12 10 11 10 10 12 13 14 13 12
7 6 4 2 6 5 5 5 5 5 2 3 8 23 28 28 36 37 41 46 50 51 49 47 41 37 36 47 44 41 37 29 26 26 24 22 18 18 17 15 14 12 12 12 12 13 13 12 11
3 3 3 5 5 6 3 7 7 8 8 7 8 12 9 19 26 33 39 39 43 47 47 48 46 42 37 37 46 44 42 36 30 31 26 23 21 21 20 16 19 19 15 14 15 14 15 15 14
8 9 8 5 5 2 4 7 5 3 4 17 14 17 17 20 22 22 24 30 37 43 44 47 47 46 41 37 38 44 44 41 36 35 31 26 26 24 23 19 20 22 20 17 18 17 16 16 16

GFSSGP_850_spd_234.txt.gz
Wind_Speed
11 10 5 1 1 1 1 3 3 6 3 2 19 3 8 10 2 3 20 16 18 17 17 14 13 13 13 14 14 14 13 12 13 12 13 14 14 13 14 14 12 11 11 11 11 12 12 12 13
10 6 1 0 2 3 3 3 8 3 9 23 14 11 7 4 5 20 21 20 16 17 17 15 14 13 13 15 15 15 14 14 14 14 15 14 14 14 14 14 14 13 12 11 12 12 12 12 12
8 1 1 1 1 1 2 3 12 16 12 6 7 10 5 4 14 25 18 22 17 17 15 15 15 15 14 14 15 14 14 15 15 15 16 14 14 14 15 15 15 14 14 13 13 12 12 12 12
3 1 1 0 2 1 4 6 15 12 12 7 18 7 7 5 17 16 23 20 18 17 16 15 15 15 15 14 14 15 15 15 15 15 14 14 14 12 13 13 13 13 14 13 13 13 13 13 11
2 0 1 1 2 2 6 12 7 4 6 10 5 5 10 11 14 21 21 19 17 17 16 15 15 15 14 13 14 15 14 15 14 14 13 13 11 11 10 11 11 12 14 13 12 13 14 15 13
2 2 2 3 6 6 6 8 4 7 11 13 15 13 4 12 18 20 20 18 16 16 16 15 14 14 14 14 15 15 15 15 13 12 12 12 11 9 8 9 9 10 11 14 13 15 16 15 13
1 1 1 3 6 4 3 5 5 6 13 8 15 6 11 21 19 20 19 17 16 15 15 15 15 15 14 14 15 15 14 13 12 11 10 9 9 9 8 7 8 10 11 12 13 16 15 13 10
3 1 3 4 3 4 2 2 13 7 5 15 11 7 11 26 21 20 19 18 16 16 14 15 15 16 16 15 15 14 13 13 12 10 11 11 10 9 9 8 7 10 13 15 15 15 13 11 11
8 4 3 3 2 5 5 3 3 7 15 3 3 23 27 27 22 20 19 19 17 17 15 15 16 16 16 16 15 14 13 13 12 11 10 9 10 10 10 9 9 11 14 18 16 15 13 11 12
2 3 5 3 5 3 16 7 0 6 5 10 23 28 28 26 22 20 21 22 20 19 18 17 17 17 16 15 14 14 13 13 12 12 12 10 11 11 12 12 12 13 18 22 17 16 14 13 12
6 4 4 5 7 8 9 17 6 14 5 5 27 32 30 27 22 19 20 20 20 20 19 19 18 16 14 13 14 16 13 10 10 11 12 12 11 12 13 14 14 16 22 23 18 18 14 12 10
4 6 9 12 11 8 8 7 7 8 3 10 28 31 31 28 23 20 20 19 21 21 21 20 17 16 15 14 15 14 11 12 13 11 11 10 11 11 11 13 15 18 20 20 18 16 14 12 10
2 4 7 10 11 9 14 11 10 2 6 12 26 29 29 28 23 20 17 17 20 23 22 21 18 16 15 16 15 13 12 10 7 8 10 10 10 11 13 14 15 18 19 18 17 16 13 10 7
4 12 12 10 10 9 7 4 1 5 11 20 28 29 29 27 24 22 20 21 21 22 22 20 18 15 15 16 16 13 10 11 11 11 11 10 7 11 15 16 15 16 17 17 15 13 11 7 4
12 6 5 3 5 4 16 2 5 13 16 22 30 30 32 29 26 22 23 22 21 23 21 18 17 16 16 16 16 13 12 13 13 11 12 12 11 13 15 15 14 14 13 12 12 10 8 5 4
3 4 3 3 4 6 5 4 10 16 21 21 24 30 33 32 26 20 24 22 22 21 20 19 18 17 16 16 14 13 13 13 13 12 12 13 11 13 15 14 15 13 11 11 10 9 7 5 4
5 2 2 2 7 6 4 4 6 21 16 15 26 29 33 33 29 22 20 23 23 21 20 18 19 19 18 15 12 12 14 15 14 13 13 15 13 13 13 14 14 12 10 9 8 9 7 5 3
4 3 1 4 4 4 7 6 5 19 18 18 25 25 29 34 34 27 22 23 25 23 20 17 19 19 17 14 11 12 14 16 15 11 10 11 12 13 12 13 15 11 8 7 9 8 6 4 4
4 4 3 2 4 4 7 3 10 19 16 16 20 27 28 34 32 30 28 25 26 25 23 20 20 20 19 20 15 12 14 17 16 12 12 9 14 14 11 13 13 12 9 8 6 7 5 3 5
3 1 1 1 4 3 3 6 4 14 20 24 25 25 29 33 33 34 33 31 29 27 26 23 20 19 23 21 18 13 13 17 16 13 10 9 10 7 9 9 11 13 12 12 7 5 6 4 4
2 3 2 2 4 2 5 5 5 7 15 22 27 31 28 32 35 35 36 36 33 31 29 27 21 21 26 23 19 15 15 16 15 14 13 13 9 7 7 7 4 8 13 13 10 10 8 7 8
3 7 3 7 3 2 1 4 5 8 15 12 24 33 31 31 37 36 38 38 39 34 30 26 20 23 28 26 22 17 17 19 16 12 14 15 11 8 8 5 5 3 8 13 14 13 13 12 12
6 7 5 4 3 2 2 2 6 9 11 19 25 34 39 35 39 40 39 40 41 36 32 28 22 26 30 29 24 21 17 17 17 13 12 12 11 10 10 8 7 6 5 12 16 15 14 15 15
3 4 7 5 3 2 6 5 5 6 14 13 20 27 36 37 40 41 39 40 43 39 35 32 25 25 32 33 26 25 19 18 20 17 12 10 12 10 9 8 7 6 6 9 14 15 14 12 11
5 6 2 2 1 5 3 2 10 4 6 10 21 30 36 38 40 40 40 43 46 44 40 36 29 30 32 35 29 27 22 20 21 17 11 10 9 12 10 9 7 8 6 8 11 13 14 12 11
7 9 5 6 4 4 3 6 6 9 14 22 26 37 38 42 43 44 43 44 48 46 44 39 34 32 32 34 36 30 28 23 21 19 15 10 8 7 11 7 6 7 7 7 9 10 11 13 14
4 4 7 6 2 1 4 7 9 8 6 9 21 29 38 44 43 44 44 45 47 48 46 42 37 34 32 33 34 34 32 29 25 21 19 15 11 8 10 9 8 8 8 8 9 9 11 12 12
9 8 4 2 7 5 4 4 6 9 8 3 8 23 31 39 40 40 42 42 44 47 44 43 37 37 33 32 34 39 36 31 27 24 22 18 15 13 12 13 10 8 9 10 11 10 11 11 11
2 3 4 5 4 6 1 6 7 8 5 5 8 19 29 34 38 41 42 39 40 42 44 44 42 40 37 32 34 40 41 35 30 26 25 22 20 18 17 17 14 12 14 14 14 13 13 14 14
7 9 7 5 4 1 4 7 4 8 5 9 13 20 24 29 31 34 38 38 37 39 39 42 45 42 39 35 33 39 42 39 35 31 28 26 22 22 21 20 19 17 16 18 18 16 16 17 16

GFSSGP_850_spd_240.txt.gz
Wind_Speed
10 8 4 1 3 5 11 8 13 13 11 7 13 2 11 13 7 6 17 13 15 13 11 13 13 12 11 13 11 10 9 9 9 9 10 10 12 12 12 12 12 13 14 16 16 16 16 15 17
9 6 1 3 5 9 8 11 14 9 11 18 11 9 5 7 10 19 15 16 15 14 12 10 12 11 11 12 11 9 9 9 10 13 11 12 13 12 11 12 12 12 14 14 14 15 14 14 14
7 3 4 3 4 8 11 12 10 12 16 12 5 8 5 5 17 12 18 17 16 13 12 12 12 11 11 11 11 11 11 11 14 14 13 13 13 12 11 12 12 13 14 13 12 15 14 13 14
4 2 4 6 12 9 14 13 12 12 11 3 10 10 10 14 10 14 19 17 15 14 11 13 13 13 12 12 12 12 12 13 14 13 13 14 13 13 13 12 12 12 13 12 13 15 13 13 13
2 4 2 5 15 17 14 13 13 8 6 8 3 10 16 6 14 21 19 17 15 14 12 12 13 11 12 12 13 14 13 13 13 14 14 14 14 12 11 12 13 12 12 12 14 14 15 15 14
4 3 4 10 17 12 10 8 6 7 9 10 18 21 10 12 20 18 17 17 14 14 13 11 12 12 12 13 13 13 13 13 12 11 12 11 11 11 11 11 11 13 13 14 15 15 13 14 14
4 1 4 12 13 8 8 4 6 8 8 8 15 12 12 16 17 18 18 16 15 14 14 11 11 10 11 12 11 13 12 12 11 10 9 9 8 8 10 10 10 12 13 15 16 15 13 13 12
2 3 6 9 10 8 5 9 7 9 8 12 14 8 15 21 19 18 18 16 15 13 13 12 12 11 10 11 12 12 10 10 10 9 9 8 8 8 9 10 11 11 13 15 14 11 9 10 12
1 3 5 5 7 8 12 9 8 9 15 5 5 14 23 24 21 19 17 16 15 14 13 13 11 12 12 10 11 10 10 10 11 11 9 7 7 7 8 10 11 12 12 14 13 11 14 14 14
1 0 5 2 5 11 10 8 15 10 11 8 13 20 25 24 22 20 18 17 15 14 14 13 12 11 11 9 10 10 8 8 8 9 9 9 8 11 10 11 12 13 12 13 12 13 16 15 9
1 3 5 6 6 14 10 8 8 9 3 10 20 27 25 23 21 19 17 17 16 15 13 13 12 12 11 10 9 8 7 6 7 10 10 12 12 11 11 10 11 13 13 9 10 13 10 10 10
6 4 2 4 6 6 5 7 7 1 6 12 22 25 24 21 20 18 17 17 17 16 13 13 12 12 12 9 10 9 7 7 7 6 9 9 10 12 11 12 14 13 11 12 10 9 9 8 9
7 7 6 10 7 7 8 7 7 7 10 19 22 23 22 19 17 17 16 16 16 16 15 14 13 11 10 12 9 11 8 8 8 7 9 9 9 12 12 15 14 13 12 11 10 9 7 7 7
4 6 10 9 10 9 7 8 6 8 16 18 22 21 20 17 17 17 17 16 16 15 15 14 12 12 11 9 10 9 8 5 6 7 6 10 8 13 13 13 13 13 12 11 9 8 6 6 6
10 9 8 7 9 6 6 7 6 14 18 18 21 21 19 17 15 16 17 17 16 15 15 14 13 13 13 12 10 8 5 4 7 7 8 6 9 14 14 12 12 11 13 13 11 9 6 5 5
6 8 10 11 10 6 7 7 10 16 20 20 21 21 19 18 16 15 15 16 17 16 16 15 13 12 13 11 9 7 6 6 7 7 8 8 10 12 12 10 10 11 9 8 6 5 4 3 3
9 6 5 6 10 5 9 3 11 16 20 21 23 22 20 18 16 16 15 16 18 17 17 16 13 13 12 13 9 9 10 8 7 7 6 8 10 11 9 9 9 10 7 6 5 4 5 3 2
11 9 6 3 8 8 8 7 10 16 19 21 23 22 21 20 19 18 18 16 17 18 18 16 14 14 13 11 11 9 9 8 7 7 7 8 8 10 10 9 10 8 7 5 5 5 3 3 1
6 9 7 5 2 7 8 7 9 15 19 21 21 24 23 22 21 20 21 20 18 19 18 17 16 17 15 12 11 11 12 10 8 8 9 7 8 9 10 8 9 8 6 6 5 3 2 1 2
10 10 9 5 5 6 3 8 10 15 19 23 24 25 25 24 24 23 23 23 22 21 19 19 18 19 17 12 10 12 11 11 8 8 7 7 10 8 6 8 8 7 5 5 5 5 4 3 1
17 14 9 7 5 10 7 14 10 12 17 20 22 24 24 26 26 26 24 25 24 24 22 20 20 20 19 14 12 13 14 12 11 8 6 8 10 8 7 7 8 9 7 5 7 6 6 3 3
19 16 9 8 8 6 2 1 13 13 16 20 25 25 27 27 27 27 27 26 26 25 23 22 21 22 22 19 15 13 13 14 12 11 9 8 8 7 7 7 7 7 8 10 10 10 7 6 3
19 9 12 12 12 11 12 7 5 14 14 19 27 30 30 30 30 30 30 29 27 25 25 25 24 23 21 22 19 15 13 14 12 11 11 10 9 7 8 9 7 7 6 11 15 14 12 7 6
19 5 9 11 13 13 15 7 7 11 14 18 24 31 29 30 31 31 30 29 29 27 26 25 27 28 26 25 26 22 16 15 15 13 10 8 8 8 11 12 10 8 7 6 10 13 13 11 9
23 17 11 12 12 13 6 7 13 1 5 9 22 31 32 30 31 31 33 32 31 30 28 26 26 30 29 27 28 27 21 19 17 16 12 10 8 10 12 12 11 8 8 7 8 10 12 11 10
23 23 15 18 13 14 13 7 6 3 2 9 16 26 30 32 33 34 34 34 33 31 30 28 27 29 30 29 29 30 27 20 18 18 15 12 10 10 12 11 10 9 10 9 7 7 8 10 11
23 24 23 22 17 13 12 14 9 10 5 9 13 19 28 33 34 35 34 35 34 33 32 31 30 31 31 30 31 32 30 26 20 17 21 15 13 11 12 11 11 10 10 10 8 7 8 9 9
21 18 20 16 23 19 17 16 8 12 9 6 8 16 24 31 34 33 33 34 35 35 33 31 32 33 33 30 31 32 32 30 27 22 20 18 15 15 13 12 12 11 12 10 8 8 9 8 8
15 15 18 18 19 16 16 16 12 14 2 4 4 9 20 26 32 33 32 32 34 33 32 32 33 35 33 32 30 30 32 30 28 24 23 22 20 19 16 14 13 13 13 12 10 10 10 10 9
25 24 22 16 23 18 15 14 8 8 1 6 6 3 10 25 30 31 31 30 29 31 32 31 30 32 37 35 33 30 28 31 29 30 25 25 23 21 19 16 15 15 15 14 13 11 11 12 12

GFSSGP_850_spd_246.txt.gz
Wind_Speed
5 3 9 8 3 5 17 14 14 17 16 21 28 20 20 17 10 14 22 21 23 16 15 16 15 15 15 15 14 13 12 13 13 13 13 14 15 15 15 15 16 18 20 19 19 20 19 21 23
6 2 7 5 4 3 3 22 3 18 24 22 21 31 28 25 31 29 25 19 18 17 13 15 15 15 14 13 11 11 11 12 12 13 13 14 14 14 14 14 16 17 18 17 17 17 19 19 20
9 1 9 4 3 9 7 16 15 21 17 15 18 24 20 21 20 25 27 24 18 20 14 16 15 15 14 13 12 11 12 13 13 13 13 14 14 14 13 14 15 16 16 17 16 17 16 14 12
1 5 8 3 3 21 14 13 17 21 20 21 23 17 24 23 26 23 20 19 25 18 12 16 16 15 13 14 14 13 14 14 13 13 13 14 15 14 13 13 14 15 16 16 16 15 15 15 15
7 6 3 6 9 20 18 11 20 13 15 25 29 20 26 23 23 21 24 23 18 14 16 18 16 16 15 15 16 16 15 14 14 13 14 14 15 14 13 13 13 13 15 15 16 16 17 17 19
6 9 3 10 18 17 15 8 11 16 21 26 25 26 26 23 21 20 17 22 21 19 15 17 17 16 16 15 15 16 14 13 13 13 14 14 15 15 15 13 12 13 14 15 15 17 18 19 21
4 1 2 13 15 6 15 7 3 15 25 21 25 22 23 22 20 20 22 21 18 20 14 16 17 16 16 16 15 15 14 13 12 12 13 14 13 13 14 13 12 14 14 15 16 17 17 19 22
11 4 9 15 9 13 7 14 8 19 18 21 23 16 21 22 21 20 20 22 23 16 18 15 14 15 14 15 15 14 13 12 11 11 11 11 11 11 12 11 12 14 14 15 15 17 19 21 20
10 4 7 5 2 10 13 15 14 14 16 11 19 28 26 25 22 22 21 19 16 20 16 14 14 16 12 14 14 13 11 10 11 12 12 12 9 11 11 11 12 15 14 14 19 20 22 22 22
2 4 10 8 9 13 9 18 18 13 14 13 25 27 26 23 22 21 20 20 18 18 17 14 16 11 14 10 12 11 12 11 11 12 13 11 11 8 4 10 12 14 16 21 17 14 10 9 10
5 3 11 14 12 15 17 18 6 10 16 20 27 28 27 23 21 20 18 19 19 15 21 14 15 16 16 8 10 7 10 12 10 8 14 12 11 6 4 12 13 15 19 18 16 12 11 12 6
5 4 14 16 10 14 13 5 21 9 19 21 24 25 25 23 20 20 19 19 19 16 18 20 15 20 13 11 14 13 11 10 10 12 16 16 16 14 5 13 16 15 14 9 7 11 9 11 12
3 8 2 10 13 13 11 11 12 9 15 22 24 23 22 22 19 18 18 18 19 17 18 19 16 17 10 10 11 11 7 17 8 12 17 19 18 15 12 10 12 9 7 4 7 9 7 7 6
11 16 5 5 15 10 12 12 10 11 17 24 23 22 21 21 20 19 19 20 19 18 16 16 12 16 14 11 16 11 15 13 12 17 17 14 16 18 18 11 8 12 10 6 5 7 4 4 7
10 16 14 14 13 10 13 5 11 15 19 23 22 21 21 20 20 19 19 20 20 19 17 17 15 15 16 16 15 14 12 18 15 14 13 15 11 17 15 12 11 10 13 9 8 9 9 8 5
16 10 6 10 9 8 10 5 12 19 21 22 22 22 21 20 20 19 19 19 20 19 19 18 14 14 13 19 14 13 20 13 10 9 16 13 22 18 12 14 11 10 12 12 6 3 4 5 2
10 6 4 1 17 10 10 9 3 21 22 21 21 22 21 21 20 20 20 20 20 22 19 18 18 15 16 12 9 12 9 16 10 5 11 17 22 20 15 12 9 11 6 5 2 2 5 4 2
11 14 14 8 9 16 11 14 18 25 25 24 24 24 23 23 23 22 22 21 21 22 20 20 19 19 15 16 12 12 16 17 12 12 9 14 20 18 12 14 10 11 9 6 6 6 4 7 6
5 14 18 16 11 14 11 18 19 25 25 26 27 26 25 25 23 23 24 23 23 21 21 21 21 22 19 18 16 16 20 12 15 18 7 15 13 19 13 6 14 9 4 12 7 7 6 4 4
15 15 21 6 12 12 6 4 21 22 22 31 29 28 28 26 26 25 26 26 25 25 24 23 22 22 21 19 18 15 13 14 12 9 10 11 10 18 14 8 16 3 7 9 6 10 6 1 4
23 18 20 16 8 8 11 15 25 21 25 29 27 27 29 29 29 28 28 28 27 27 27 26 22 21 24 17 15 17 16 13 13 16 12 15 11 16 11 15 11 9 6 3 5 10 4 4 2
22 16 18 7 8 10 17 11 15 19 18 25 29 31 30 30 31 32 29 29 29 28 27 25 24 20 26 19 17 20 20 18 13 15 13 15 16 16 11 18 12 14 9 9 3 8 7 6 2
22 23 19 12 13 11 13 10 15 21 20 24 29 36 35 31 32 34 32 31 30 29 28 27 27 22 24 22 18 23 23 15 16 14 18 10 11 10 9 13 16 14 15 6 10 10 12 7 5
23 23 15 12 18 11 21 14 17 18 21 23 32 39 39 36 34 35 34 33 30 32 30 29 28 25 27 27 21 25 24 18 16 18 18 14 10 15 13 12 11 10 14 13 14 17 12 13 9
23 21 14 13 12 14 19 18 7 4 10 18 19 37 37 33 34 35 38 37 35 34 34 33 30 31 29 29 24 25 25 19 19 18 15 14 17 14 18 17 14 11 12 11 10 14 14 12 13
25 23 16 17 15 16 20 17 12 19 22 21 34 34 40 38 36 37 39 38 38 35 34 36 33 30 32 28 32 28 24 21 16 21 13 16 16 23 18 16 13 14 11 12 10 10 8 12 11
26 22 23 26 22 15 14 20 16 13 14 14 25 29 37 47 41 41 40 39 39 37 36 35 33 32 32 32 30 32 30 26 17 17 22 20 13 8 15 14 13 12 13 11 11 9 8 11 10
27 18 20 16 21 15 21 10 12 14 12 14 13 27 31 31 36 40 39 41 41 39 35 35 33 33 32 32 32 29 33 31 28 19 20 22 13 13 12 15 11 15 13 14 13 11 10 10 9
17 20 23 18 19 16 15 14 19 14 14 13 15 27 33 34 31 35 39 42 42 39 37 36 34 35 33 31 32 31 30 33 28 27 23 24 18 17 19 15 12 14 15 16 16 14 14 15 14
28 24 26 16 19 16 15 15 10 15 14 10 16 19 26 30 33 29 32 41 44 40 38 38 37 37 32 30 32 31 30 29 35 33 30 24 27 19 21 22 17 17 17 18 19 18 15 16 14